Regional Weather Roundup
Issued by NWS Newport/Morehead, NC

Current Version | Previous Version | Graphics & Text | Print | Product List | Glossary Off
Versions: 1 2 3 4 5 6 7 8 9 10 11 12 13 14 15 16 17 18 19 20 21 22 23 24 25 26 27 28 29 30 31 32 33 34 35 36 37 38 39 40 41 42 43 44 45 46 47 48 49 50

000
ASUS42 KMHX 242113
RWRMHX
WEATHER ROUNDUP FOR EASTERN NORTH CAROLINA
NATIONAL WEATHER SERVICE NEWPORT/MOREHEAD CITY NC
500 PM EDT TUE MAY 24 2016

NOTE: "FAIR" INDICATES FEW OR NO CLOUDS BELOW 12,000 FEET
WITH NO SIGNIFICANT WEATHER AND/OR OBSTRUCTIONS TO VISIBILITY

NCZ015>017-031-032-045>047-102-103-242200-
NORTH COAST

CITY           SKY/WX    TMP DP  RH WIND       PRES   REMARKS
EDENTON        SUNNY     82  59  44 SW7       30.05F
ELIZABETH CITY PTSUNNY   81  55  40 W9        30.03S
KITTY HAWK     CLEAR     82  54  37 W6        30.04S
MANTEO         SUNNY     79  55  42 W6        30.05F

$$

NCZ045>047-081-094-103-104-242200-
CENTRAL COAST

CITY           SKY/WX    TMP DP  RH WIND       PRES   REMARKS
FRISCO         SUNNY     72  61  68 SW10      30.08F

$$

NCZ095-097-098-100-101-242200-
SOUTHERN COAST

CITY           SKY/WX    TMP DP  RH WIND       PRES   REMARKS
BEAUFORT       SUNNY     73  60  63 SW20G26   30.10S
CEDAR ISLAND   NOT AVBL
JACKSONVILLE   MOSUNNY   78  59  51 S12       30.09S
PINEY ISLAND   CLEAR    N/A N/A N/A SW13      30.08
WILMINGTON     MOSUNNY   79  57  46 S12       30.10F


$$

NCZ011>013-027>030-043-044-078>080-089-090>093-098-242200-
COASTAL PLAIN

CITY           SKY/WX    TMP DP  RH WIND       PRES   REMARKS
AHOSKIE        MOSUNNY   80  54  40 CALM      30.05S
CLINTON        SUNNY     83  54  37 N6        30.09F
ELIZABETHTOWN  PTSUNNY   82  52  35 SW6       30.10F
GOLDSBORO      SUNNY     83  49  30 NW5       30.06F
GREENVILLE     SUNNY     82  54  36 W5        30.08S
HAVELOCK       MOSUNNY   78  59  51 S13G22    30.10R
KENANSVILLE    SUNNY     82  48  30 SW9       30.10S
KINSTON        SUNNY     82  48  30 NW6       30.08F
NEW BERN       SUNNY     82  55  39 W6        30.08F
RICHLANDS      SUNNY     82  53  36 SW6       30.09F
ROCKY MOUNT    SUNNY     82  53  36 W8        30.07S
WASHINGTON     MOSUNNY   81  55  39 W10       30.06F
WHITEVILLE     SUNNY     80  53  39 W3        30.11S

$$

AMZ130-135-150-152-154-156-158-170-250-252-270-ANZ085-086-088-633-658-670-242200-
MARINE OBSERVATIONS

STATION/POSITION TIME  TEMP    WIND        PRES    WAVE   SWELL
                       AIR SEA DIR/SP/G            HT/PER HT/PER
                 (UTC) (F)     (DEG/KT/KT) (MB)    (FT/S) (FT/S)
CHESAPEAKE LIGHT 2100   71     180/  7/  8 1017.2
64 E VA BEACH    2050   62 57  220/  8/  8 1016.9    3/ 8   3/ 8
DUCK             2000   76 61  230/ 10/ 13 1016.6
2 E DUCK         2011      64                N/A     2/10
OREGON INLET     2000   71 65  190/ 13/ 16 1017.7
13E OREGON INLT  2000      64                N/A     3/ 9   3/ 9
HATTERAS CG      2000   71 66  210/ 12/ 17 1018.6
DIAMOND BUOY     2050   73 79  230/ 16/ 19 1018.7    3/ 9   3/ 9
CAPE LOOKOUT     2100   73     220/ 10/ 15 1019.0
BEAUFORT LAB     2000   72 68  210/ 10/ 17 1018.6
30 SE NEW RVR IN 2025      73                N/A     2/ 9
27 SE WRIGHTSVLE 2008   72 73  220/ 16/ 19 1020.6
5 SE WRIGHTSVLE  2008   72 72  220/ 17/ 23 1020.7
225 S CAPE HAT   2050   73 78  340/  6/  8 1020.5    5/ 8   5/ 8
41 SE CHARLESTON NOT AVBL

$$




USA.gov is the U.S. government's official web portal to all federal, state and local government web resources and services.